User: anonymous
Location: South Range
(44.4886°N, 65.7879°W)
Time: 15:51:04
(UTC-03:00)
Language:

Iridium 56 - Orbit

View from above orbital plane
View from above orbital plane
View from above satellite
View from above satellite

Ground track
Ground track

The orbit data is extracted from the following two-line orbital elements,

1 25170U 98010B   14245.11351035  .00000006  00000-0 -49825-5 0  7154
2 25170 086.3934 056.4202 0002278 113.1094 023.5751 14.34212672865696
Epoch (UTC): 02 September 2014 02:43:27
Eccentricity: 0.0002278
inclination: 86.3934°
perigee height: 776 km
apogee height: 779 km
right ascension of ascending node: 56.4202°
argument of perigee: 113.1094°
revolutions per day: 14.34212672
mean anomaly at epoch: 23.5751°
orbit number at epoch: 86569

The dashed part of the orbit path shows where the satellite is in the earth's shadow,  

DLR